| time (UTC) | temp F | wind direction | speed MPH | gust MPH | rain 1hr in | rain 24hr in | rain mn in | humidity % | barometer mb |
| 20260502233500 | 74 | 5 | 2.0 | 8.0 | 0.00 | 0.28 | 0.01 | 44 | 1018.5 |
| 20260502233108 | 74 | 316 | 3.0 | 8.0 | 0.00 | 0.28 | 0.01 | 43 | 1018.5 |
| 20260502232600 | 74 | 36 | 3.0 | 8.0 | 0.00 | 0.28 | 0.01 | 45 | 1018.5 |
| 20260502232100 | 74 | 302 | 4.0 | 11.0 | 0.00 | 0.28 | 0.01 | 43 | 1018.5 |
| 20260502231609 | 74 | 303 | 6.0 | 11.0 | 0.00 | 0.28 | 0.01 | 43 | 1018.5 |
| 20260502231202 | 74 | 341 | 5.0 | 10.0 | 0.00 | 0.28 | 0.01 | 42 | 1018.5 |
| 20260502230600 | 74 | 343 | 4.0 | 9.0 | 0.00 | 0.28 | 0.01 | 43 | 1018.5 |
| 20260502230059 | 75 | 22 | 4.0 | 9.0 | 0.00 | 0.28 | 0.01 | 43 | 1018.5 |
| 20260502225559 | 75 | 315 | 3.0 | 12.0 | 0.00 | 0.37 | 0.01 | 44 | 1018.4 |
| 20260502225059 | 75 | 328 | 2.0 | 12.0 | 0.00 | 0.37 | 0.01 | 42 | 1018.4 |
| 20260502224559 | 75 | 345 | 3.0 | 10.0 | 0.00 | 0.37 | 0.01 | 43 | 1018.4 |
| 20260502224059 | 75 | 340 | 5.0 | 10.0 | 0.00 | 0.37 | 0.01 | 43 | 1018.4 |
| 20260502223559 | 75 | 17 | 5.0 | 15.0 | 0.00 | 0.37 | 0.01 | 43 | 1018.4 |
| 20260502223059 | 75 | 19 | 6.0 | 15.0 | 0.00 | 0.37 | 0.01 | 43 | 1018.4 |
| 20260502222559 | 75 | 13 | 5.0 | 12.0 | 0.00 | 0.37 | 0.01 | 42 | 1018.4 |
| 20260502222058 | 75 | 344 | 5.0 | 12.0 | 0.00 | 0.37 | 0.01 | 42 | 1018.5 |
| 20260502221600 | 75 | 328 | 6.0 | 12.0 | 0.00 | 0.37 | 0.01 | 42 | 1018.5 |
| 20260502221058 | 75 | 5 | 3.0 | 11.0 | 0.00 | 0.37 | 0.01 | 43 | 1018.5 |
| 20260502220557 | 75 | 100 | 5.0 | 15.0 | 0.00 | 0.37 | 0.01 | 42 | 1018.5 |
| 20260502220104 | 75 | 333 | 5.0 | 15.0 | 0.00 | 0.37 | 0.01 | 42 | 1018.6 |
| 20260502215557 | 75 | 310 | 3.0 | 10.0 | 0.00 | 0.49 | 0.01 | 42 | 1018.6 |
| 20260502215056 | 75 | 344 | 5.0 | 11.0 | 0.00 | 0.49 | 0.01 | 42 | 1018.5 |
| 20260502214556 | 76 | 5 | 4.0 | 11.0 | 0.00 | 0.49 | 0.01 | 42 | 1018.6 |
| 20260502214059 | 76 | 337 | 2.0 | 14.0 | 0.00 | 0.49 | 0.01 | 42 | 1018.6 |
| 20260502213556 | 76 | 331 | 6.0 | 14.0 | 0.00 | 0.49 | 0.01 | 42 | 1018.7 |
| 20260502213055 | 76 | 42 | 2.0 | 12.0 | 0.00 | 0.49 | 0.01 | 42 | 1018.6 |
| 20260502212555 | 76 | 315 | 5.0 | 14.0 | 0.00 | 0.49 | 0.01 | 42 | 1018.7 |
| 20260502212056 | 76 | 90 | 5.0 | 14.0 | 0.00 | 0.49 | 0.01 | 41 | 1018.7 |
| 20260502211555 | 76 | 312 | 6.0 | 14.0 | 0.00 | 0.49 | 0.01 | 41 | 1018.7 |
| 20260502211059 | 76 | 318 | 5.0 | 11.0 | 0.00 | 0.49 | 0.01 | 43 | 1018.7 |
| 20260502210554 | 76 | 324 | 2.0 | 13.0 | 0.00 | 0.49 | 0.01 | 42 | 1018.9 |
| 20260502210104 | 76 | 127 | 5.0 | 13.0 | 0.00 | 0.49 | 0.01 | 42 | 1019.0 |
| 20260502205554 | 76 | 336 | 5.0 | 12.0 | 0.00 | 0.78 | 0.01 | 42 | 1018.9 |
| 20260502205057 | 76 | 346 | 2.0 | 12.0 | 0.00 | 0.78 | 0.01 | 41 | 1018.9 |
| 20260502204554 | 76 | 348 | 5.0 | 12.0 | 0.00 | 0.78 | 0.01 | 40 | 1019.0 |
| 20260502204054 | 76 | 355 | 5.0 | 11.0 | 0.00 | 0.78 | 0.01 | 41 | 1019.1 |
| 20260502203554 | 76 | 311 | 4.0 | 14.0 | 0.00 | 0.78 | 0.01 | 41 | 1019.1 |
| 20260502203054 | 76 | 338 | 4.0 | 14.0 | 0.00 | 0.78 | 0.01 | 41 | 1019.2 |
| 20260502202553 | 76 | 347 | 3.0 | 9.0 | 0.00 | 0.78 | 0.01 | 41 | 1019.2 |
| 20260502202052 | 76 | 292 | 3.0 | 11.0 | 0.00 | 0.78 | 0.01 | 40 | 1019.3 |
| 20260502201602 | 77 | 13 | 5.0 | 11.0 | 0.00 | 0.78 | 0.01 | 40 | 1019.4 |
| 20260502201054 | 77 | 350 | 4.0 | 11.0 | 0.00 | 0.78 | 0.01 | 42 | 1019.4 |
| 20260502200552 | 77 | 300 | 3.0 | 11.0 | 0.00 | 0.78 | 0.01 | 41 | 1019.4 |
| 20260502200054 | 76 | 347 | 3.0 | 11.0 | 0.00 | 0.78 | 0.01 | 41 | 1019.5 |
| 20260502195548 | 76 | 331 | 3.0 | 9.0 | 0.00 | 1.12 | 0.01 | 41 | 1019.6 |
| 20260502195048 | 75 | 355 | 3.0 | 10.0 | 0.00 | 1.12 | 0.01 | 42 | 1019.7 |
| 20260502194548 | 75 | 340 | 3.0 | 10.0 | 0.00 | 1.12 | 0.01 | 40 | 1019.7 |
| 20260502194047 | 75 | 20 | 3.0 | 10.0 | 0.00 | 1.12 | 0.01 | 40 | 1019.8 |
| 20260502193548 | 75 | 348 | 5.0 | 14.0 | 0.00 | 1.12 | 0.01 | 40 | 1019.8 |
| 20260502193047 | 75 | 355 | 8.0 | 14.0 | 0.00 | 1.12 | 0.01 | 40 | 1019.9 |
| 20260502192550 | 75 | 348 | 4.0 | 11.0 | 0.00 | 1.12 | 0.01 | 42 | 1019.9 |
| 20260502192046 | 75 | 5 | 3.0 | 11.0 | 0.00 | 1.12 | 0.01 | 42 | 1020.0 |
| 20260502191550 | 75 | 355 | 4.0 | 10.0 | 0.00 | 1.12 | 0.01 | 43 | 1020.1 |
| 20260502191049 | 75 | 12 | 4.0 | 10.0 | 0.00 | 1.12 | 0.01 | 42 | 1020.1 |
| 20260502190546 | 75 | 28 | 5.0 | 15.0 | 0.00 | 1.12 | 0.01 | 40 | 1020.1 |
| 20260502190058 | 76 | 26 | 5.0 | 15.0 | 0.00 | 1.12 | 0.01 | 40 | 1020.2 |
| 20260502185545 | 76 | 9 | 4.0 | 12.0 | 0.00 | 1.59 | 0.01 | 41 | 1020.4 |
| 20260502185049 | 75 | 34 | 5.0 | 13.0 | 0.00 | 1.59 | 0.01 | 40 | 1020.4 |
| 20260502184555 | 75 | 24 | 6.0 | 13.0 | 0.00 | 1.59 | 0.01 | 41 | 1020.3 |
| 20260502184045 | 75 | 309 | 5.0 | 14.0 | 0.00 | 1.59 | 0.01 | 42 | 1020.3 |
| 20260502183545 | 75 | 68 | 5.0 | 15.0 | 0.00 | 1.59 | 0.01 | 42 | 1020.2 |
| 20260502183044 | 75 | 34 | 4.0 | 15.0 | 0.00 | 1.59 | 0.01 | 42 | 1020.5 |
| 20260502182543 | 75 | 29 | 3.0 | 14.0 | 0.00 | 1.59 | 0.01 | 43 | 1020.6 |
| 20260502182043 | 74 | 306 | 6.0 | 12.0 | 0.00 | 1.59 | 0.01 | 43 | 1020.7 |
| 20260502181543 | 74 | 47 | 4.0 | 17.0 | 0.00 | 1.59 | 0.01 | 43 | 1020.7 |
| 20260502181042 | 74 | 72 | 10.0 | 17.0 | 0.00 | 1.59 | 0.01 | 41 | 1020.8 |
| 20260502180542 | 75 | 32 | 7.0 | 13.0 | 0.00 | 1.59 | 0.01 | 41 | 1020.8 |
| 20260502164033 | 73 | 313 | 5.0 | 17.0 | 0.00 | 2.38 | 0.01 | 46 | 1021.2 |
| 20260502163535 | 72 | 323 | 4.0 | 17.0 | 0.00 | 2.38 | 0.01 | 48 | 1021.1 |
| 20260502163031 | 72 | 315 | 6.0 | 17.0 | 0.00 | 2.38 | 0.01 | 49 | 1021.0 |
| 20260502162533 | 72 | 340 | 6.0 | 13.0 | 0.00 | 2.38 | 0.01 | 50 | 1021.1 |
| 20260502162030 | 71 | 86 | 3.0 | 15.0 | 0.00 | 2.38 | 0.01 | 51 | 1021.1 |
| 20260502161529 | 71 | 344 | 4.0 | 15.0 | 0.00 | 2.38 | 0.01 | 52 | 1021.1 |
| 20260502161028 | 70 | 344 | 6.0 | 13.0 | 0.00 | 2.38 | 0.01 | 51 | 1021.1 |
| 20260502160527 | 71 | 10 | 5.0 | 12.0 | 0.00 | 2.38 | 0.01 | 53 | 1021.1 |
| 20260502152027 | 67 | 338 | 5.0 | 13.0 | 0.00 | 2.44 | 0.01 | 60 | 1020.9 |
| 20260502151521 | 67 | 54 | 4.0 | 13.0 | 0.00 | 2.44 | 0.01 | 60 | 1021.0 |
| 20260502151020 | 67 | 36 | 6.0 | 14.0 | 0.00 | 2.44 | 0.01 | 60 | 1020.9 |
| 20260502150519 | 67 | 5 | 6.0 | 14.0 | 0.00 | 2.44 | 0.01 | 61 | 1021.0 |
| 20260502130553 | 57 | 351 | 5.0 | 10.0 | 0.00 | 2.66 | 0.00 | 86 | 1019.9 |
| 20260502123546 | 54 | 355 | 2.0 | 8.0 | 0.00 | 2.69 | 0.00 | 90 | 1019.4 |
| 20260502123046 | 54 | 333 | 3.0 | 8.0 | 0.00 | 2.69 | 0.00 | 91 | 1019.3 |
| 20260502122545 | 53 | 348 | 2.0 | 6.0 | 0.00 | 2.69 | 0.00 | 91 | 1019.3 |
| 20260502122044 | 53 | 5 | 3.0 | 9.0 | 0.00 | 2.69 | 0.00 | 91 | 1019.1 |
| 20260502121555 | 53 | 355 | 4.0 | 9.0 | 0.00 | 2.69 | 0.00 | 91 | 1019.1 |
| 20260502121043 | 52 | 342 | 3.0 | 6.0 | 0.00 | 2.69 | 0.00 | 90 | 1019.1 |
| 20260502120542 | 52 | 333 | 2.0 | 6.0 | 0.00 | 2.69 | 0.00 | 90 | 1019.0 |
| 20260502115544 | 52 | 331 | 2.0 | 6.0 | 0.00 | 2.69 | 0.00 | 90 | 1018.8 |
| 20260502115040 | 52 | 324 | 3.0 | 5.0 | 0.00 | 2.69 | 0.00 | 89 | 1018.8 |
| 20260502114540 | 52 | 343 | 1.0 | 4.0 | 0.00 | 2.69 | 0.00 | 89 | 1018.7 |
| 20260502114040 | 52 | 343 | 2.0 | 4.0 | 0.00 | 2.69 | 0.00 | 89 | 1018.8 |
| 20260502113539 | 52 | 348 | 1.0 | 4.0 | 0.00 | 2.69 | 0.00 | 89 | 1018.8 |
| 20260502113039 | 52 | 348 | 2.0 | 4.0 | 0.00 | 2.69 | 0.00 | 89 | 1018.8 |
| 20260502112538 | 53 | 5 | 1.0 | 4.0 | 0.00 | 2.69 | 0.00 | 89 | 1018.9 |
| 20260502112037 | 53 | 9 | 2.0 | 8.0 | 0.00 | 2.69 | 0.00 | 89 | 1018.7 |
| 20260502111537 | 53 | 5 | 2.0 | 8.0 | 0.00 | 2.69 | 0.00 | 89 | 1018.6 |
| 20260502111035 | 53 | 350 | 3.0 | 6.0 | 0.00 | 2.69 | 0.00 | 89 | 1018.5 |
| 20260502110533 | 53 | 19 | 1.0 | 6.0 | 0.00 | 2.69 | 0.00 | 88 | 1018.4 |
| 20260502110033 | 53 | 302 | 1.0 | 6.0 | 0.00 | 2.69 | 0.00 | 88 | 1018.3 |
| 20260502105533 | 53 | 346 | 2.0 | 6.0 | 0.00 | 2.73 | 0.00 | 88 | 1018.2 |
| 20260502105032 | 53 | 355 | 2.0 | 6.0 | 0.00 | 2.73 | 0.00 | 88 | 1018.2 |
| 20260502104540 | 53 | 323 | 3.0 | 9.0 | 0.00 | 2.73 | 0.00 | 88 | 1018.2 |
| 20260502104030 | 53 | 360 | 3.0 | 9.0 | 0.00 | 2.73 | 0.00 | 88 | 1018.1 |
| 20260502103530 | 53 | 355 | 2.0 | 6.0 | 0.00 | 2.73 | 0.00 | 88 | 1018.1 |
| 20260502103033 | 53 | 350 | 2.0 | 5.0 | 0.00 | 2.73 | 0.00 | 88 | 1018.1 |
| 20260502102528 | 53 | 12 | 2.0 | 5.0 | 0.00 | 2.73 | 0.00 | 87 | 1018.0 |
| 20260502102028 | 53 | 9 | 1.0 | 8.0 | 0.00 | 2.73 | 0.00 | 87 | 1017.9 |
| 20260502101527 | 53 | 82 | 3.0 | 8.0 | 0.00 | 2.73 | 0.00 | 87 | 1017.8 |
| 20260502101026 | 54 | 355 | 3.0 | 6.0 | 0.00 | 2.73 | 0.00 | 87 | 1017.7 |
| 20260502100526 | 54 | 355 | 1.0 | 4.0 | 0.00 | 2.73 | 0.00 | 86 | 1017.7 |
| 20260502091518 | 55 | 18 | 0.0 | 6.0 | 0.00 | 3.15 | 0.00 | 86 | 1016.6 |
| 20260502091017 | 55 | 23 | 2.0 | 8.0 | 0.00 | 3.15 | 0.00 | 86 | 1016.6 |
| 20260502090517 | 55 | 10 | 3.0 | 8.0 | 0.00 | 3.15 | 0.00 | 86 | 1016.6 |
| 20260502071511 | 55 | 360 | 4.0 | 10.0 | 0.00 | 3.53 | 0.00 | 90 | 1016.4 |
| 20260502071010 | 55 | 13 | 3.0 | 9.0 | 0.00 | 3.53 | 0.00 | 90 | 1016.4 |
| 20260502070509 | 55 | 355 | 4.0 | 9.0 | 0.00 | 3.53 | 0.00 | 91 | 1016.4 |
| 20260502070016 | 55 | 46 | 3.0 | 8.0 | 0.00 | 3.53 | 0.00 | 91 | 1016.5 |
| 20260502065510 | 55 | 337 | 2.0 | 10.0 | 0.00 | 3.62 | 0.00 | 91 | 1016.5 |
| 20260502065012 | 55 | 333 | 3.0 | 10.0 | 0.00 | 3.62 | 0.00 | 91 | 1016.5 |
| 20260502064524 | 55 | 360 | 3.0 | 8.0 | 0.00 | 3.62 | 0.00 | 91 | 1016.5 |
| 20260502064007 | 55 | 5 | 2.0 | 11.0 | 0.00 | 3.62 | 0.00 | 91 | 1016.6 |
| 20260502063510 | 55 | 360 | 3.0 | 11.0 | 0.00 | 3.62 | 0.00 | 91 | 1016.5 |
| 20260502063010 | 55 | 37 | 2.0 | 13.0 | 0.00 | 3.62 | 0.00 | 92 | 1016.4 |
| 20260502062505 | 55 | 360 | 5.0 | 13.0 | 0.00 | 3.62 | 0.00 | 91 | 1016.4 |
| 20260502062009 | 55 | 332 | 4.0 | 12.0 | 0.00 | 3.62 | 0.00 | 92 | 1016.3 |
| 20260502061504 | 55 | 337 | 4.0 | 12.0 | 0.00 | 3.62 | 0.00 | 92 | 1016.2 |
| 20260502061003 | 55 | 360 | 5.0 | 10.0 | 0.00 | 3.62 | 0.00 | 92 | 1016.2 |
| 20260502060503 | 55 | 5 | 2.0 | 13.0 | 0.00 | 3.62 | 0.00 | 92 | 1016.2 |
| 20260502060005 | 55 | 20 | 4.0 | 13.0 | 0.00 | 3.62 | 0.00 | 92 | 1016.2 |
| 20260502055503 | 55 | 324 | 5.0 | 13.0 | 0.00 | 3.67 | 0.00 | 92 | 1016.2 |
| 20260502055003 | 55 | 347 | 5.0 | 12.0 | 0.00 | 3.67 | 0.00 | 92 | 1016.1 |
| 20260502054502 | 55 | 5 | 3.0 | 10.0 | 0.00 | 3.67 | 0.00 | 92 | 1016.2 |
| 20260502054004 | 55 | 20 | 3.0 | 8.0 | 0.00 | 3.67 | 0.00 | 93 | 1016.2 |
| 20260502053501 | 55 | 30 | 3.0 | 14.0 | 0.00 | 3.67 | 0.00 | 93 | 1016.2 |
| 20260502053108 | 55 | 355 | 3.0 | 14.0 | 0.00 | 3.67 | 0.00 | 93 | 1016.2 |
| 20260502052559 | 55 | 327 | 5.0 | 12.0 | 0.00 | 3.67 | 0.00 | 93 | 1016.2 |
| 20260502052102 | 55 | 28 | 3.0 | 12.0 | 0.00 | 3.67 | 0.00 | 92 | 1016.0 |
| 20260502051603 | 55 | 36 | 4.0 | 13.0 | 0.00 | 3.67 | 0.00 | 93 | 1016.0 |
| 20260502051057 | 55 | 55 | 4.0 | 13.0 | 0.00 | 3.67 | 0.00 | 93 | 1016.1 |
| 20260502050559 | 55 | 5 | 6.0 | 12.0 | 0.00 | 3.67 | 0.00 | 93 | 1015.9 |
| 20260502050059 | 55 | 28 | 5.0 | 14.0 | 0.00 | 3.67 | 0.00 | 93 | 1015.8 |
| 20260502045555 | 55 | 5 | 5.0 | 14.0 | 0.00 | 3.80 | 3.67 | 93 | 1015.8 |
| 20260502045057 | 55 | 43 | 2.0 | 12.0 | 0.00 | 3.80 | 3.67 | 93 | 1015.8 |
| 20260502044557 | 55 | 11 | 3.0 | 12.0 | 0.00 | 3.80 | 3.67 | 93 | 1015.7 |
| 20260502044054 | 55 | 17 | 4.0 | 13.0 | 0.00 | 3.80 | 3.67 | 93 | 1015.7 |
| 20260502043554 | 55 | 349 | 4.0 | 13.0 | 0.00 | 3.80 | 3.67 | 93 | 1015.6 |
| 20260502043100 | 55 | 34 | 4.0 | 12.0 | 0.00 | 3.80 | 3.67 | 93 | 1015.8 |
| 20260502042553 | 55 | 5 | 4.0 | 12.0 | 0.00 | 3.80 | 3.67 | 93 | 1016.0 |
| 20260502042053 | 55 | 360 | 5.0 | 12.0 | 0.00 | 3.80 | 3.67 | 93 | 1016.1 |
| 20260502041553 | 55 | 14 | 3.0 | 12.0 | 0.00 | 3.80 | 3.67 | 93 | 1016.1 |
| 20260502041055 | 55 | 335 | 3.0 | 12.0 | 0.00 | 3.80 | 3.67 | 93 | 1016.0 |
| 20260502040550 | 55 | 13 | 5.0 | 12.0 | 0.00 | 3.80 | 3.67 | 93 | 1015.9 |
| 20260502040051 | 55 | 19 | 5.0 | 14.0 | 0.00 | 3.80 | 3.67 | 93 | 1015.8 |
| 20260502035552 | 55 | 65 | 4.0 | 14.0 | 0.00 | 3.80 | 3.67 | 93 | 1015.8 |
| 20260502035050 | 55 | 360 | 5.0 | 14.0 | 0.00 | 3.80 | 3.67 | 93 | 1015.8 |
| 20260502034550 | 55 | 5 | 4.0 | 13.0 | 0.00 | 3.80 | 3.67 | 93 | 1016.0 |
| 20260502034049 | 55 | 5 | 5.0 | 11.0 | 0.00 | 3.80 | 3.67 | 93 | 1015.9 |
| 20260502033548 | 55 | 336 | 4.0 | 9.0 | 0.00 | 3.80 | 3.67 | 93 | 1015.8 |
| 20260502033053 | 55 | 321 | 4.0 | 11.0 | 0.00 | 3.80 | 3.67 | 94 | 1015.7 |
| 20260502032545 | 55 | 42 | 4.0 | 12.0 | 0.00 | 3.80 | 3.67 | 94 | 1015.4 |
| 20260502032046 | 55 | 36 | 5.0 | 13.0 | 0.00 | 3.80 | 3.67 | 94 | 1015.4 |
| 20260502031546 | 55 | 342 | 6.0 | 16.0 | 0.00 | 3.80 | 3.67 | 94 | 1015.4 |
| 20260502031044 | 56 | 321 | 6.0 | 16.0 | 0.00 | 3.80 | 3.67 | 94 | 1015.3 |
| 20260502030541 | 56 | 321 | 6.0 | 13.0 | 0.00 | 3.80 | 3.67 | 94 | 1015.1 |
| 20260502030042 | 56 | 23 | 6.0 | 13.0 | 0.00 | 3.80 | 3.67 | 94 | 1015.0 |
| 20260502025541 | 56 | 360 | 5.0 | 14.0 | 0.01 | 3.80 | 3.67 | 94 | 1014.8 |
| 20260502025039 | 56 | 346 | 3.0 | 16.0 | 0.01 | 3.80 | 3.67 | 94 | 1014.5 |
| 20260502024538 | 56 | 20 | 4.0 | 16.0 | 0.02 | 3.80 | 3.67 | 94 | 1014.2 |
| 20260502024038 | 56 | 355 | 6.0 | 14.0 | 0.03 | 3.80 | 3.67 | 94 | 1014.2 |
| 20260502023537 | 56 | 15 | 6.0 | 14.0 | 0.03 | 3.80 | 3.67 | 93 | 1014.3 |
| 20260502023036 | 56 | 26 | 5.0 | 13.0 | 0.04 | 3.80 | 3.67 | 93 | 1014.1 |
| 20260502022535 | 56 | 342 | 7.0 | 15.0 | 0.04 | 3.80 | 3.67 | 94 | 1014.1 |
| 20260502022033 | 57 | 332 | 8.0 | 15.0 | 0.04 | 3.80 | 3.67 | 93 | 1014.2 |
| 20260502021534 | 57 | 19 | 5.0 | 11.0 | 0.05 | 3.80 | 3.67 | 94 | 1014.0 |
| 20260502021032 | 57 | 20 | 3.0 | 11.0 | 0.05 | 3.80 | 3.67 | 94 | 1013.6 |
| 20260502020556 | 57 | 343 | 6.0 | 13.0 | 0.05 | 3.80 | 3.67 | 94 | 1013.8 |
| 20260502020031 | 57 | 355 | 6.0 | 13.0 | 0.06 | 3.80 | 3.67 | 94 | 1014.0 |
| 20260502015530 | 57 | 348 | 4.0 | 14.0 | 0.06 | 3.79 | 3.66 | 94 | 1013.9 |
| 20260502015031 | 58 | 355 | 6.0 | 13.0 | 0.08 | 3.79 | 3.66 | 94 | 1013.7 |
| 20260502014532 | 58 | 355 | 4.0 | 13.0 | 0.08 | 3.78 | 3.65 | 94 | 1013.3 |
| 20260502014028 | 58 | 321 | 4.0 | 12.0 | 0.07 | 3.77 | 3.64 | 94 | 1013.6 |
| 20260502013528 | 58 | 355 | 4.0 | 12.0 | 0.07 | 3.77 | 3.64 | 94 | 1013.6 |
| 20260502013027 | 58 | 347 | 5.0 | 12.0 | 0.07 | 3.76 | 3.63 | 94 | 1013.5 |
| 20260502012527 | 58 | 355 | 4.0 | 9.0 | 0.07 | 3.76 | 3.63 | 94 | 1013.4 |
| 20260502012027 | 58 | 324 | 3.0 | 11.0 | 0.08 | 3.76 | 3.63 | 94 | 1013.3 |
| 20260502011547 | 58 | 9 | 6.0 | 11.0 | 0.08 | 3.75 | 3.62 | 94 | 1013.1 |
| 20260502011027 | 58 | 337 | 5.0 | 11.0 | 0.09 | 3.75 | 3.62 | 94 | 1013.0 |
| 20260502010526 | 58 | 355 | 3.0 | 12.0 | 0.10 | 3.75 | 3.62 | 94 | 1012.8 |
| 20260502010026 | 58 | 360 | 5.0 | 13.0 | 0.10 | 3.74 | 3.61 | 94 | 1012.7 |
| 20260502005525 | 58 | 22 | 3.0 | 16.0 | 0.10 | 3.73 | 3.60 | 94 | 1012.8 |
| 20260502005024 | 58 | 18 | 7.0 | 16.0 | 0.09 | 3.71 | 3.58 | 94 | 1013.2 |
| 20260502004533 | 58 | 360 | 4.0 | 10.0 | 0.10 | 3.70 | 3.57 | 94 | 1013.6 |
| 20260502004022 | 58 | 304 | 3.0 | 11.0 | 0.11 | 3.70 | 3.57 | 94 | 1013.2 |
| 20260502003524 | 58 | 348 | 3.0 | 12.0 | 0.12 | 3.70 | 3.57 | 94 | 1012.7 |
| 20260502003025 | 58 | 332 | 5.0 | 12.0 | 0.11 | 3.69 | 3.56 | 94 | 1012.3 |
| 20260502002521 | 58 | 355 | 2.0 | 12.0 | 0.11 | 3.69 | 3.56 | 94 | 1011.9 |
| 20260502002023 | 58 | 360 | 6.0 | 12.0 | 0.10 | 3.68 | 3.55 | 94 | 1011.9 |
| 20260502001520 | 59 | 350 | 4.0 | 11.0 | 0.09 | 3.67 | 3.54 | 94 | 1012.1 |
| 20260502001023 | 59 | 323 | 4.0 | 12.0 | 0.09 | 3.66 | 3.53 | 94 | 1012.3 |
| 20260502000519 | 59 | 5 | 4.0 | 12.0 | 0.10 | 3.65 | 3.52 | 93 | 1012.1 |
| 20260502000019 | 59 | 22 | 4.0 | 11.0 | 0.11 | 3.64 | 3.51 | 93 | 1012.2 |
| 20260501235523 | 59 | 18 | 4.0 | 11.0 | 0.15 | 3.63 | 3.50 | 93 | 1012.3 |
| 20260501235018 | 59 | 280 | 5.0 | 11.0 | 0.15 | 3.61 | 3.48 | 93 | 1011.9 |
| 20260501234517 | 59 | 19 | 4.0 | 12.0 | 0.16 | 3.60 | 3.47 | 93 | 1012.6 |
| 20260501234016 | 59 | 316 | 3.0 | 12.0 | 0.15 | 3.59 | 3.46 | 93 | 1013.0 |